Weather History for Lincoln, IL

Change the Weather History Date:

Sunday, November 25, 2012

  Actual Average (KSPI) Record (KSPI)
Temperature  
Mean Temperature 40 °F 38 °F  
Max Temperature 47 °F 47 °F 69 °F (2006)
Min Temperature 32 °F 30 °F 0 °F (1950)
Degree Days  
Heating Degree Days 26 27  
Month to date heating degree days 519  
Since 1 July heating degree days 929  
Cooling Degree Days 0 0  
Month to date cooling degree days 0  
Year to date cooling degree days 1121  
Moisture  
Dew Point 27 °F    
Average Humidity 61    
Maximum Humidity 81    
Minimum Humidity 47    
Precipitation  
Precipitation 0.00 in 0.11 in 0.90 in (1986)
Month to date precipitation 2.67  
Year to date precipitation 34.37  
Snow  
Snow 0.00 in 0.10 in 1.90 in (1972)
Month to date snowfall 0.4  
Since 1 July snowfall 0.4  
Since 1 September snowfall 0.4  
Snow Depth -    
Sea Level Pressure  
Sea Level Pressure 29.95 in    
Wind  
Wind Speed 6 mph (WSW)    
Max Wind Speed 14 mph    
Max Gust Speed 16 mph    
Visibility 10 miles    
Events      
T = Trace of Precipitation, MM = Missing Value Source: NWS Daily Summary

Daily Weather History Graph

Daily Weather History Graph

Search for Another Location

Airport:

Trip Planner

Search our weather history database for the weather conditions in past years. The results will help you decide how hot, cold, wet, or windy it might be!

Date:

Astronomy

Nov. 25, 2012 Rise Set
Actual Time 6:54 AM CST 4:34 PM CST
Civil Twilight 6:24 AM CST 5:03 PM CST
Nautical Twilight 5:51 AM CST 5:37 PM CST
Astronomical Twilight 5:18 AM CST 6:09 PM CST
Moon 2:51 PM CST (11/25) 4:08 AM CST (11/25)
Length of Visible Light 10h 38m
Length of Day
9h 39m
Waxing Gibbous, 93% of the Moon is Illuminated
Nov 25
Waxing Gibbous
Nov 28
Full
Dec 6
Last Quarter
Dec 13
New
Dec 19
First Quarter

Hourly Weather History & Observations

Time (CST) Temp. Windchill Dew Point Humidity Pressure Visibility Wind Dir Wind Speed Gust Speed Precip Events Conditions
12:15 AM 32.0 °F 22.1 °F 24.8 °F 75% 29.99 in 10.0 mi South 13.8 mph - N/A   Clear
12:35 AM 32.0 °F 22.5 °F 24.6 °F 74% 29.97 in 10.0 mi South 12.7 mph - N/A   Clear
12:55 AM 32.0 °F 22.1 °F 24.8 °F 75% 29.96 in 10.0 mi South 13.8 mph - N/A   Clear
1:15 AM 32.0 °F 22.5 °F 24.8 °F 75% 29.95 in 10.0 mi South 12.7 mph - N/A   Clear
1:35 AM 32.0 °F 23.0 °F 24.8 °F 75% 29.95 in 10.0 mi South 11.5 mph 16.1 mph N/A   Clear
1:55 AM 32.0 °F 23.6 °F 24.8 °F 75% 29.94 in 10.0 mi South 10.4 mph - N/A   Clear
2:15 AM 32.0 °F 23.6 °F 24.8 °F 75% 29.94 in 10.0 mi South 10.4 mph - N/A   Clear
2:35 AM 32.0 °F 24.2 °F 25.2 °F 76% 29.93 in 10.0 mi South 9.2 mph - N/A   Clear
2:55 AM 32.0 °F 24.8 °F 25.3 °F 76% 29.92 in 10.0 mi South 8.1 mph - N/A   Scattered Clouds
3:15 AM 32.9 °F 25.9 °F 25.3 °F 74% 29.91 in 10.0 mi South 8.1 mph - N/A   Scattered Clouds
3:35 AM 33.3 °F 28.9 °F 25.3 °F 73% 29.91 in 10.0 mi SSW 4.6 mph - N/A   Scattered Clouds
3:55 AM 33.4 °F 28.1 °F 25.7 °F 73% 29.90 in 10.0 mi SSW 5.8 mph - N/A   Clear
4:15 AM 34.0 °F 31.0 °F 25.5 °F 71% 29.90 in 10.0 mi SSW 3.5 mph - N/A   Clear
4:35 AM 34.0 °F 29.8 °F 25.7 °F 72% 29.89 in 10.0 mi South 4.6 mph - N/A   Scattered Clouds
4:55 AM 34.0 °F - 26.1 °F 73% 29.89 in 10.0 mi Calm Calm - N/A   Clear
5:15 AM 35.8 °F 30.9 °F 25.2 °F 65% 29.89 in 10.0 mi SSW 5.8 mph - N/A   Clear
5:35 AM 37.0 °F 33.3 °F 24.6 °F 61% 29.88 in 10.0 mi SW 4.6 mph - N/A   Clear
5:55 AM 37.4 °F 32.8 °F 24.3 °F 59% 29.89 in 10.0 mi SW 5.8 mph - N/A   Clear
6:15 AM 37.2 °F 31.9 °F 24.6 °F 60% 29.89 in 10.0 mi SW 6.9 mph - N/A   Clear
6:35 AM 37.4 °F 34.9 °F 24.8 °F 60% 29.90 in 10.0 mi SW 3.5 mph - N/A   Clear
6:55 AM 37.4 °F - 25.2 °F 61% 29.89 in 10.0 mi Calm Calm - N/A   Clear
7:15 AM 37.2 °F - 25.5 °F 63% 29.90 in 10.0 mi Calm Calm - N/A   Clear
7:35 AM 37.6 °F 35.1 °F 25.7 °F 62% 29.91 in 10.0 mi SW 3.5 mph - N/A   Clear
7:55 AM 37.6 °F - 25.7 °F 62% 29.91 in 10.0 mi Calm Calm - N/A   Clear
8:15 AM 37.8 °F - 26.2 °F 63% 29.91 in 10.0 mi Calm Calm - N/A   Clear
8:35 AM 41.0 °F 37.1 °F 26.6 °F 57% 29.91 in 10.0 mi WSW 5.8 mph - N/A   Clear
8:55 AM 42.1 °F 39.2 °F 26.4 °F 54% 29.92 in 10.0 mi WSW 4.6 mph - N/A   Clear
9:15 AM 42.6 °F 40.9 °F 26.4 °F 53% 29.91 in 10.0 mi WSW 3.5 mph - N/A   Clear
9:35 AM 43.9 °F 41.3 °F 26.8 °F 51% 29.92 in 10.0 mi West 4.6 mph - N/A   Clear
9:55 AM 44.2 °F 41.0 °F 27.1 °F 51% 29.92 in 10.0 mi West 5.8 mph - N/A   Clear
10:15 AM 44.4 °F 40.0 °F 27.3 °F 51% 29.92 in 10.0 mi West 8.1 mph - N/A   Clear
10:35 AM 45.1 °F 42.8 °F 27.3 °F 50% 29.91 in 10.0 mi NW 4.6 mph - N/A   Clear
10:55 AM 46.4 °F 42.4 °F 28.0 °F 49% 29.92 in 10.0 mi West 8.1 mph - N/A   Clear
11:15 AM 46.8 °F - 27.3 °F 47% 29.91 in 10.0 mi West 5.8 mph - N/A   Clear
11:35 AM 46.9 °F - 27.7 °F 47% 29.91 in 10.0 mi West 5.8 mph - N/A   Clear
11:55 AM 47.5 °F - 28.2 °F 47% 29.91 in 10.0 mi WNW 4.6 mph - N/A   Clear
12:15 PM 47.5 °F - 28.0 °F 47% 29.90 in 10.0 mi West 6.9 mph - N/A   Scattered Clouds
12:35 PM 47.5 °F - 28.0 °F 47% 29.91 in 10.0 mi WNW 4.6 mph - N/A   Mostly Cloudy
12:55 PM 47.1 °F - 28.0 °F 48% 29.92 in 10.0 mi WNW 5.8 mph - N/A   Scattered Clouds
1:15 PM 47.3 °F - 28.0 °F 47% 29.91 in 10.0 mi West 4.6 mph - N/A   Clear
1:35 PM 46.8 °F - 28.9 °F 50% 29.91 in 10.0 mi WNW 3.5 mph - N/A   Clear
1:55 PM 46.9 °F - 28.8 °F 49% 29.91 in 10.0 mi NW 5.8 mph - N/A   Clear
2:15 PM 47.3 °F - 28.6 °F 48% 29.92 in 10.0 mi WNW 3.5 mph - N/A   Mostly Cloudy
2:35 PM 46.9 °F - 28.2 °F 48% 29.91 in 10.0 mi WNW 5.8 mph - N/A   Mostly Cloudy
2:55 PM 46.4 °F 45.2 °F 28.2 °F 49% 29.92 in 10.0 mi West 3.5 mph - N/A   Mostly Cloudy
3:15 PM 46.4 °F 44.3 °F 28.2 °F 49% 29.92 in 10.0 mi WNW 4.6 mph - N/A   Mostly Cloudy
3:35 PM 46.0 °F 44.8 °F 28.2 °F 50% 29.92 in 10.0 mi WNW 3.5 mph - N/A   Overcast
3:55 PM 45.7 °F 44.4 °F 28.4 °F 51% 29.92 in 10.0 mi NW 3.5 mph - N/A   Overcast
4:15 PM 45.5 °F - 28.8 °F 52% 29.94 in 10.0 mi Calm Calm - N/A   Overcast
4:35 PM 45.1 °F - 28.4 °F 52% 29.95 in 10.0 mi Calm Calm - N/A   Scattered Clouds
4:55 PM 45.0 °F 43.5 °F 28.8 °F 53% 29.96 in 10.0 mi West 3.5 mph - N/A   Scattered Clouds
5:15 PM 44.6 °F - 28.9 °F 54% 29.97 in 10.0 mi Calm Calm - N/A   Scattered Clouds
5:35 PM 44.4 °F - 28.9 °F 55% 29.97 in 10.0 mi Calm Calm - N/A   Scattered Clouds
5:55 PM 44.1 °F 42.5 °F 29.1 °F 56% 29.98 in 10.0 mi West 3.5 mph - N/A   Scattered Clouds
6:15 PM 44.1 °F - 29.3 °F 56% 29.98 in 10.0 mi Calm Calm - N/A   Mostly Cloudy
6:35 PM 43.7 °F - 29.5 °F 57% 29.99 in 10.0 mi Calm Calm - N/A   Scattered Clouds
6:55 PM 43.7 °F - 29.3 °F 57% 29.99 in 10.0 mi Calm Calm - N/A   Clear
7:15 PM 43.2 °F - 29.8 °F 59% 30.00 in 10.0 mi Calm Calm - N/A   Clear
7:35 PM 42.8 °F - 30.0 °F 61% 30.02 in 10.0 mi Calm Calm - N/A   Scattered Clouds
7:55 PM 42.1 °F - 30.4 °F 63% 30.01 in 10.0 mi Calm Calm - N/A   Mostly Cloudy
8:15 PM 41.0 °F 39.0 °F 31.3 °F 68% 30.02 in 10.0 mi NNW 3.5 mph - N/A   Mostly Cloudy
8:35 PM 40.8 °F 38.8 °F 31.3 °F 69% 30.03 in 10.0 mi NNW 3.5 mph - N/A   Mostly Cloudy
8:55 PM 40.8 °F - 31.1 °F 68% 30.04 in 10.0 mi Calm Calm - N/A   Mostly Cloudy
9:15 PM 41.0 °F - 30.7 °F 67% 30.05 in 10.0 mi Calm Calm - N/A   Scattered Clouds
9:35 PM 40.5 °F - 30.7 °F 68% 30.05 in 10.0 mi Calm Calm - N/A   Clear
9:55 PM 39.2 °F - 30.2 °F 70% 30.05 in 10.0 mi Calm Calm - N/A   Clear
10:15 PM 38.3 °F - 29.7 °F 71% 30.06 in 10.0 mi Calm Calm - N/A   Clear
10:35 PM 37.0 °F - 29.5 °F 74% 30.06 in 10.0 mi Calm Calm - N/A   Clear
10:55 PM 36.1 °F - 29.1 °F 76% 30.08 in 10.0 mi Calm Calm - N/A   Clear
11:15 PM 34.9 °F - 28.6 °F 78% 30.08 in 10.0 mi Calm Calm - N/A   Clear
11:35 PM 34.2 °F - 28.4 °F 79% 30.09 in 10.0 mi Calm Calm - N/A   Mostly Cloudy
11:55 PM 33.4 °F - 28.0 °F 81% 30.09 in 10.0 mi Calm Calm - N/A   Scattered Clouds